This demonstration page uses our WeatherBlox Daily Observations layout. Learn more.

Left ArrowRight Arrow

41.86663, -103.66717

Hourly Observations for June 14, 2021

Temp ( °F °C ) Dew Point ( °F °C ) Humidity (%) Winds ( mph kmh ) Pressure ( in mb ) Visibility ( mi km ) Precip ( " mm )
12:53 am 00:53 Clear 72 22.2 51 10.6 48 48 SSE 8 13 29.98 1015 10 16 N/A
1:53 am 01:53 Clear 67 19.4 56 13.3 68 68 E 6 9 29.99 1016 10 16 N/A
2:53 am 02:53 Clear 67 19.4 54 12.2 63 63 E 6 9 29.97 1015 10 16 N/A
3:53 am 03:53 Clear 64 17.8 54 12.2 70 70 ENE 9 15 29.97 1015 10 16 N/A
4:53 am 04:53 Clear 63 17.2 56 13.3 78 78 E 7 11 29.98 1015 10 16 N/A
5:53 am 05:53 Sunny 64 17.8 56 13.3 75 75 E 7 11 30.01 1016 10 16 N/A
6:53 am 06:53 Sunny 69 20.6 58 14.4 68 68 E 6 9 30.02 1017 10 16 N/A
7:53 am 07:53 Sunny 75 23.9 60 15.6 60 60 E 7 11 30.00 1016 10 16 N/A
8:53 am 08:53 Sunny 79 26.1 60 15.6 52 52 ESE 12 19 30.02 1017 10 16 N/A
9:53 am 09:53 Sunny 83 28.3 60 15.6 46 46 ESE 8 13 29.99 1016 10 16 N/A
10:53 am 10:53 Sunny 88 31.1 60 15.6 39 39 SE 10 17 29.96 1015 10 16 N/A
11:53 am 11:53 Sunny 92 33.3 61 16.1 36 36 ESE 10 17 29.94 1014 10 16 N/A
12:53 pm 12:53 Sunny 96 35.6 60 15.6 30 30 SE 14 22 29.92 1013 10 16 N/A
1:53 pm 13:53 Sunny 98 36.7 59 15 27 27 SE 13 20 29.90 1013 10 16 N/A
2:53 pm 14:53 Sunny 99 37.2 58 14.4 26 26 SSE 9 15 29.88 1012 10 16 N/A
3:53 pm 15:53 Sunny 100 37.8 58 14.4 25 25 ESE 10 17 29.88 1012 10 16 N/A
4:53 pm 16:53 Mostly Sunny 100 37.8 60 15.6 27 27 ESE 20 31 29.86 1011 10 16 N/A
5:53 pm 17:53 Sunny 98 36.7 60 15.6 28 28 ESE 16 26 29.87 1011 10 16 N/A
6:53 pm 18:53 Sunny 95 35 59 15 30 30 ESE 20 31 29.85 1011 10 16 N/A
7:51 pm 19:51 Sunny with Nearby Thunderstorms 91 33 57 14 32 32 ESE 14 22 29.69 1005 10 16 N/A
7:53 pm 19:53 Sunny with Nearby Thunderstorms 92 33.3 58 14.4 32 32 ESE 14 22 29.88 1012 10 16 N/A
8:12 pm 20:12 Sunny 91 32.8 58 14.4 33 33 E 14 22 29.71 1006 10 16 N/A
8:22 pm 20:22 Sunny with Nearby Thunderstorms 91 32.8 58 14.4 33 33 ESE 17 28 29.71 1006 10 16 N/A
8:37 pm 20:37 Clear 91 32.8 58 14.4 33 33 ESE 18 30 29.70 1006 10 16 N/A
8:53 pm 20:53 Clear 89 31.7 58 14.4 35 35 SE 14 22 29.89 1012 10 16 N/A
9:53 pm 21:53 undefined 86 30 58 14.4 39 39 ESE 15 24 29.91 1013 10 16 N/A
10:53 pm 22:53 Clear 82 27.8 58 14.4 44 44 ESE 9 15 29.93 1014 10 16 N/A
11:53 pm 23:53 Clear 80 26.7 56 13.3 44 44 ESE 13 20 29.93 1014 10 16 N/A

Powered by AerisWeather